GEFSNGP_500_meanwind_078.txt.gz
Wind_Speed
10 10 11 11 12 12 12 11 12 13 14 16 18 18 19 20 21 22 23 25 27 29 31 33 34 35 35 36 37 38 39 39 39 39 39 39 39 39 39 39 39 39 39 39
10 10 9 9 10 10 10 11 13 15 16 18 19 20 21 22 22 23 25 26 28 30 32 34 35 35 36 37 38 39 39 40 40 40 40 41 41 41 40 40 40 40 39 40
10 9 9 9 9 9 10 12 14 16 18 20 21 21 22 23 23 24 26 27 29 31 33 35 35 36 37 38 39 39 40 41 41 42 42 42 42 41 40 40 40 40 40 40
10 10 9 9 10 10 11 13 15 17 19 21 21 22 23 23 24 25 27 29 30 32 34 35 36 36 37 39 40 41 42 42 43 43 43 44 43 42 41 41 41 40 40 40
11 11 9 9 10 11 13 14 16 18 20 21 21 22 23 23 25 26 28 30 31 33 35 36 36 37 39 40 42 43 43 44 44 45 44 44 43 42 41 41 41 40 39 38
13 12 10 10 11 13 14 15 18 19 20 21 21 22 23 24 26 27 29 31 32 34 35 36 37 38 40 41 43 43 44 45 46 45 45 45 44 42 41 40 40 39 38 38
14 13 11 13 14 15 17 19 19 20 22 23 23 24 25 26 27 28 30 31 33 34 35 36 38 39 41 42 44 45 46 46 46 46 46 46 44 42 40 40 40 38 37 37
16 16 16 17 17 18 19 21 22 23 24 25 25 26 27 28 29 30 32 32 34 35 36 37 39 41 42 44 45 46 47 47 47 47 46 45 44 42 40 40 38 37 37 36
19 19 19 20 21 21 22 23 24 24 25 26 27 28 29 30 31 32 34 34 35 36 37 38 40 42 44 46 47 48 48 48 48 47 46 45 43 41 40 39 38 37 36 35
23 22 23 24 24 24 24 25 25 26 27 28 29 29 31 32 33 34 35 36 36 37 39 40 42 44 46 48 48 48 48 48 48 47 45 44 42 41 39 38 37 36 35 34
26 25 25 25 25 25 26 26 27 28 28 29 30 31 32 33 34 34 36 37 38 39 41 42 44 46 48 49 49 49 48 48 48 46 44 42 41 40 39 38 37 35 34 33
28 27 28 27 26 27 27 28 28 29 30 30 31 32 33 34 34 35 37 38 39 41 43 45 47 48 49 50 50 49 48 48 47 45 43 41 40 39 38 37 36 35 34 31
30 29 29 28 28 29 29 30 30 31 31 32 33 33 34 35 36 37 38 40 41 44 45 47 49 50 50 50 50 50 49 48 45 43 41 40 38 37 36 36 36 34 33 31
31 31 31 30 30 31 32 32 33 33 34 34 35 36 36 37 38 39 40 42 44 46 47 49 50 50 51 51 50 50 48 46 43 41 39 38 38 37 35 34 33 32 31 30
31 32 32 33 33 34 34 34 35 36 37 37 38 38 38 39 40 41 43 44 46 48 49 50 51 51 51 51 50 48 47 44 41 39 38 38 37 35 34 34 32 30 29 28
33 34 35 35 36 36 37 37 38 39 39 39 40 41 41 42 43 44 46 48 49 50 51 51 52 52 52 51 49 47 44 42 39 37 37 36 35 34 33 32 31 29 28 27
36 37 37 38 38 38 38 39 40 41 41 42 43 44 45 46 47 47 49 51 52 52 52 53 53 52 52 51 48 45 42 39 37 36 35 35 33 32 31 31 29 28 26 25
38 38 39 39 39 40 41 42 42 43 44 45 46 48 49 50 49 50 52 52 53 53 53 53 53 53 52 50 46 42 40 37 35 34 33 32 31 30 30 28 27 26 24 23
39 40 40 41 42 42 43 44 46 47 47 48 49 50 51 52 53 53 54 54 54 54 53 53 53 52 50 47 43 40 37 35 33 32 30 29 28 28 27 25 24 24 23 22
41 42 43 44 44 45 46 47 49 50 50 51 52 53 54 56 56 56 56 55 55 55 54 53 52 49 46 43 40 37 34 33 31 29 28 27 26 25 24 22 21 22 21 20
44 45 45 46 47 49 50 51 52 54 55 56 57 57 58 58 58 58 57 56 55 55 53 51 49 46 43 40 37 34 32 31 29 27 25 24 23 23 22 20 19 19 19 18
47 48 49 50 52 53 54 56 56 57 58 59 60 60 60 59 59 58 58 56 54 53 50 48 45 42 39 36 34 32 30 28 26 24 23 22 21 20 18 17 16 16 16 15
51 53 54 55 56 57 58 59 59 60 60 61 60 60 60 60 59 58 56 54 52 50 47 45 42 40 36 33 31 29 27 25 23 21 20 19 18 17 15 15 14 13 13 12
55 56 57 58 59 59 59 60 60 60 60 60 60 60 59 58 57 55 54 51 48 45 43 40 38 36 32 30 28 26 24 22 20 18 17 16 15 14 13 12 11 10 10 10
58 58 59 59 60 60 60 60 60 60 59 58 58 57 56 55 53 51 48 46 43 41 38 36 34 32 29 27 25 23 21 19 18 16 15 14 13 11 11 10 9 8 8 8
59 59 60 60 60 60 60 60 59 59 58 56 55 53 52 51 49 46 43 41 38 37 35 33 31 29 27 25 23 21 19 17 15 13 12 11 11 10 9 8 6 6 5 5
59 59 60 60 60 59 59 58 57 56 55 53 52 50 48 46 44 40 37 35 33 32 30 28 27 26 24 22 20 19 17 15 13 12 11 10 9 9 7 6 4 3 3 3

GEFSNGP_500_meanwind_084.txt.gz
Wind_Speed
13 13 13 12 13 12 12 11 11 12 13 14 14 14 14 15 15 15 15 16 17 18 19 20 21 22 23 24 25 27 29 30 32 33 35 36 37 38 39 39 39 39 39 38
12 13 12 11 11 11 12 11 12 12 14 14 14 15 15 15 16 16 16 17 18 19 20 21 22 23 24 26 27 29 30 32 34 36 37 38 39 40 41 41 41 40 40 39
12 13 12 11 11 11 11 11 12 12 14 15 15 15 15 16 16 16 17 18 19 20 21 22 24 25 26 27 29 31 33 34 36 38 39 40 41 42 42 42 41 41 40 40
13 14 12 12 13 12 12 12 13 14 15 15 16 16 16 17 17 17 17 18 20 21 22 24 25 26 27 29 31 33 35 37 39 40 41 42 43 44 43 43 42 41 41 40
13 12 12 14 14 13 13 14 16 16 17 17 17 17 17 17 17 18 19 20 21 22 24 25 26 27 29 31 33 35 37 39 40 42 43 44 44 45 44 43 43 42 41 39
14 13 13 16 17 15 16 16 18 18 19 19 19 18 19 19 19 19 20 21 22 24 25 26 27 29 31 33 35 37 39 41 42 44 44 45 45 45 45 43 43 42 40 39
17 16 16 19 18 17 17 19 21 21 20 20 20 20 20 21 21 21 22 23 24 25 27 28 29 31 32 35 37 39 41 43 44 45 46 47 46 46 45 43 42 41 39 37
19 19 20 21 19 20 21 21 22 22 22 22 22 22 22 23 24 24 25 25 27 28 29 29 31 33 35 37 39 41 43 44 45 46 47 48 48 46 44 43 41 39 38 37
23 23 24 23 23 23 23 23 24 24 24 24 24 24 24 25 26 27 27 28 29 30 31 33 34 35 37 39 42 43 44 45 47 48 48 49 48 47 44 42 40 39 37 36
23 24 24 24 24 24 25 25 26 26 26 27 26 27 27 28 29 29 30 31 31 33 34 36 37 38 40 42 44 45 46 47 48 49 49 49 48 46 44 41 40 38 37 35
25 25 25 26 26 26 26 27 27 28 28 29 29 29 30 30 31 32 34 34 35 36 38 39 40 41 43 44 46 48 49 49 49 50 49 48 47 45 43 41 39 37 36 35
26 26 26 27 27 28 28 28 29 30 30 31 31 32 32 33 34 36 37 38 39 40 41 42 43 43 45 47 48 49 49 50 50 50 49 48 46 44 42 41 38 37 35 34
27 27 28 28 29 29 30 30 30 31 31 32 33 34 34 35 36 38 40 41 43 42 43 45 45 45 47 49 49 50 50 51 51 50 48 47 45 43 41 39 37 35 35 33
28 29 29 29 30 30 30 31 31 32 32 33 35 36 37 38 39 41 42 44 45 45 46 47 47 47 49 50 51 50 51 51 50 49 47 46 44 41 39 36 35 34 33 32
29 30 31 31 31 32 32 32 33 34 34 35 37 38 39 40 41 43 45 46 47 47 48 48 49 49 50 50 50 51 51 50 49 48 46 44 41 39 37 35 34 32 32 31
30 31 32 33 33 33 34 35 35 36 37 39 40 41 42 43 45 46 48 49 50 51 51 50 50 50 50 50 50 51 50 49 48 46 44 41 39 37 35 33 32 31 30 29
33 33 34 35 35 36 36 37 38 39 40 41 43 44 45 46 48 49 49 50 51 52 53 52 51 51 51 51 51 51 50 48 47 44 41 39 37 35 33 31 31 29 28 27
35 35 36 36 37 37 38 39 40 42 43 44 45 47 48 49 50 51 51 51 52 54 54 53 53 53 53 52 51 50 49 47 45 42 39 36 34 32 30 29 28 27 26 25
36 37 37 38 39 40 41 42 43 45 46 47 48 49 50 52 52 53 53 53 53 54 54 55 55 55 54 52 51 49 47 45 42 39 36 33 31 30 28 27 25 24 23 22
38 39 40 41 42 43 44 45 46 47 48 49 50 51 52 53 54 55 55 56 56 56 56 55 55 54 52 51 49 47 44 41 38 36 33 30 28 27 26 24 23 21 20 18
41 42 43 44 44 45 47 48 49 50 51 52 53 54 55 55 56 57 57 56 56 56 55 54 53 52 50 48 46 43 41 38 35 32 29 27 25 24 23 22 20 19 17 17
44 45 46 47 47 48 49 51 52 53 53 54 55 56 56 56 56 56 56 56 55 54 53 52 51 49 47 45 42 39 37 34 31 28 26 24 23 21 20 19 18 17 16 15
46 47 48 49 50 51 52 53 54 54 55 56 56 57 57 57 56 56 55 54 54 53 52 50 49 46 43 41 39 36 33 30 28 25 23 22 21 19 17 16 15 15 14 13
48 49 50 51 52 52 53 53 54 55 55 56 56 56 56 56 55 55 54 53 51 50 49 47 45 42 39 37 34 31 29 26 24 22 21 20 18 17 15 14 13 12 12 11
50 51 51 52 52 53 54 54 54 55 55 54 54 54 54 53 52 51 50 49 48 47 45 42 40 37 34 31 28 26 25 24 22 20 18 17 15 14 13 12 11 10 9 8
50 51 51 52 52 53 53 53 52 52 52 51 51 50 49 48 47 47 46 45 44 42 39 37 34 31 29 27 25 23 21 21 20 19 17 16 14 13 11 10 9 7 6 6
50 50 51 51 50 50 50 49 49 48 48 47 47 46 45 45 44 43 42 41 39 36 33 31 28 26 25 23 21 20 18 17 16 16 15 13 12 11 10 9 8 7 5 4

GEFSNGP_500_meanwind_090.txt.gz
Wind_Speed
15 14 12 9 8 10 13 14 14 15 17 19 17 18 19 19 19 18 18 17 17 17 17 18 19 20 21 21 22 23 24 26 27 28 30 32 34 35 36 38 39 40 40 40
15 14 14 13 12 13 15 15 14 14 17 21 21 20 19 20 20 20 19 19 18 18 19 19 20 21 22 23 24 25 26 28 29 30 32 34 36 37 39 40 41 41 42 42
16 14 15 15 14 14 14 14 14 15 18 20 20 20 20 20 20 20 20 20 20 20 20 21 22 23 24 24 25 26 28 29 31 33 35 36 38 40 41 42 42 43 44 43
16 15 16 12 12 14 15 15 16 18 19 20 20 19 20 20 20 20 21 21 21 21 21 22 23 24 26 26 27 28 30 31 33 35 36 38 40 42 43 44 44 45 44 43
17 16 16 14 16 15 15 17 17 18 18 19 20 20 21 21 20 21 21 22 23 23 24 24 25 26 27 28 29 30 32 34 36 38 38 40 42 44 45 45 46 46 45 44
17 16 17 19 19 19 19 19 18 17 19 20 20 21 23 23 22 23 23 23 24 24 25 26 27 27 28 30 31 32 34 36 38 39 40 42 43 44 45 46 47 46 46 44
17 16 19 23 21 18 18 20 18 19 21 22 23 24 25 25 25 26 26 26 26 26 26 27 28 29 30 32 34 35 36 38 40 41 43 43 44 46 46 47 47 46 45 44
21 21 23 24 24 23 21 19 19 22 24 25 26 28 28 27 27 27 28 28 28 28 28 29 30 31 33 35 37 38 39 41 43 44 45 45 47 48 48 48 47 46 44 43
26 26 26 25 26 27 26 24 24 25 26 28 29 29 29 30 29 28 29 30 30 30 30 31 33 34 36 38 40 41 42 44 46 46 46 47 48 49 49 48 47 46 44 43
28 28 28 26 26 25 24 26 27 28 29 30 30 30 30 31 31 30 30 32 32 33 34 35 36 37 39 40 42 44 45 47 47 48 48 49 50 49 49 49 48 46 45 43
28 29 28 29 29 28 28 29 30 30 30 31 31 32 32 33 33 33 33 35 35 35 37 38 39 40 41 43 45 46 47 48 49 50 50 51 51 50 49 48 48 47 45 43
29 28 31 32 30 29 29 31 32 32 32 33 33 33 34 34 35 36 36 37 38 38 39 41 42 43 44 45 47 47 48 50 52 52 52 51 51 51 50 49 47 45 43 41
29 30 31 32 31 32 32 33 33 33 34 34 34 35 36 36 37 38 39 39 40 41 42 43 44 45 47 48 48 49 50 52 53 53 52 52 51 51 50 48 46 44 41 39
29 29 31 32 32 32 33 34 34 35 35 35 36 37 37 38 39 40 40 41 42 43 44 45 46 48 49 50 50 51 52 53 53 52 52 52 52 51 50 48 45 43 40 38
29 31 32 32 33 34 34 35 36 36 36 37 38 38 39 40 40 41 42 43 44 45 46 47 49 50 51 51 52 52 53 53 53 54 54 53 52 51 48 46 43 40 38 36
32 33 34 34 35 36 36 37 37 38 38 39 39 40 41 41 42 43 44 45 46 48 49 50 50 51 52 52 53 53 53 54 54 54 54 53 52 49 47 44 41 38 36 35
34 34 35 36 37 37 38 38 39 40 40 41 41 42 42 43 44 45 46 47 48 49 51 51 52 53 54 54 55 55 55 55 55 54 53 52 49 46 43 40 38 35 34 33
35 36 37 38 39 39 40 40 41 41 42 42 43 44 44 45 46 47 48 49 50 51 53 53 54 55 55 56 55 55 55 55 54 54 52 49 46 43 40 38 36 34 32 31
36 37 38 39 40 40 41 41 42 43 43 44 45 46 47 48 49 50 51 52 53 54 55 55 56 56 56 56 56 56 56 55 54 52 50 47 43 40 37 35 34 31 29 29
36 38 39 40 40 41 42 43 44 44 45 47 48 49 50 51 52 53 53 54 55 55 56 56 57 57 57 57 56 56 55 53 52 49 46 42 40 37 35 33 30 28 28 27
38 39 40 41 42 43 44 45 46 47 48 50 50 52 52 53 54 54 55 55 56 56 56 57 57 57 57 56 55 54 53 51 48 45 42 39 36 34 32 30 28 27 25 24
40 41 42 43 44 46 46 47 48 50 51 52 52 53 54 54 55 55 56 57 57 57 57 56 56 55 55 54 52 51 49 46 43 40 37 35 32 30 28 26 24 23 22 22
43 44 45 46 47 48 48 49 50 51 52 53 54 54 54 54 55 55 55 55 55 55 54 54 54 53 52 51 49 47 44 41 38 36 34 31 28 26 24 22 21 21 20 20
46 47 47 48 49 49 50 51 51 52 52 53 53 54 54 54 53 53 53 53 52 52 52 51 51 49 49 47 44 41 38 35 33 31 29 26 24 22 20 19 18 18 17 17
48 48 49 49 50 50 51 52 52 52 52 51 51 51 51 51 52 51 51 51 50 49 49 47 46 44 42 41 38 35 32 29 27 25 24 22 21 20 17 16 16 16 15 14
48 49 49 49 49 49 49 49 49 49 48 48 48 48 48 48 48 48 47 47 46 45 44 42 41 39 38 37 34 31 29 26 24 22 21 20 19 17 15 15 15 14 13 12
47 47 47 46 46 46 46 46 45 45 44 45 45 44 44 44 44 43 42 42 41 40 40 39 38 37 35 32 29 27 25 23 21 20 19 17 16 16 16 14 13 13 12 11

GEFSNGP_500_meanwind_096.txt.gz
Wind_Speed
18 17 17 16 16 17 18 17 18 17 17 16 14 13 12 11 10 9 8 8 8 8 9 10 11 11 12 14 15 16 17 18 20 22 23 24 26 28 30 32 33 34 35 36
17 18 17 17 17 17 18 19 20 19 17 16 16 15 14 12 11 10 10 10 10 11 11 12 13 15 15 16 17 18 19 21 23 24 25 27 29 30 32 34 35 36 37 38
18 18 18 17 17 18 21 22 21 20 18 17 16 15 14 14 12 11 11 11 11 13 14 14 16 18 17 18 20 21 22 24 25 26 28 29 31 32 34 36 37 38 38 39
19 19 19 16 18 19 21 22 22 22 21 19 17 16 15 14 13 13 12 12 13 14 16 17 18 19 19 20 22 23 25 26 27 28 30 31 33 34 36 37 38 39 39 40
21 20 18 18 19 20 22 23 24 24 23 21 20 19 17 15 14 14 14 15 16 17 18 20 21 21 22 22 24 25 27 28 29 30 32 33 35 36 37 39 40 41 41 41
22 22 21 19 19 21 23 25 24 25 25 24 23 22 19 17 16 16 17 18 19 20 21 22 22 23 24 26 27 28 29 31 32 33 34 35 36 38 39 40 42 42 42 42
22 23 21 19 19 20 23 24 24 24 25 25 25 22 21 20 19 20 21 21 21 23 24 24 25 26 27 29 30 31 32 33 34 35 37 38 39 40 41 42 43 43 43 44
22 23 21 19 19 20 22 24 25 25 25 24 24 24 23 22 23 24 23 23 24 24 26 27 27 28 29 30 32 33 34 35 36 38 39 40 41 42 42 43 43 43 44 44
23 23 21 20 21 22 22 24 24 24 23 23 23 23 23 24 23 24 25 26 26 27 28 29 30 31 32 33 34 35 36 37 38 40 41 42 43 44 44 45 44 44 45 45
24 24 24 23 21 21 23 23 23 23 23 24 23 23 23 23 24 26 27 29 29 30 30 31 32 33 35 36 37 38 38 40 41 42 42 43 44 45 46 46 45 46 46 46
26 26 26 24 23 23 23 22 22 23 23 23 23 23 23 24 26 28 29 30 31 32 33 34 35 36 37 38 39 40 41 42 42 43 44 45 46 46 47 47 47 47 48 48
27 27 26 25 24 23 22 23 23 23 23 23 23 24 25 26 27 29 30 32 33 34 35 36 37 38 39 40 40 41 42 43 44 45 46 47 48 48 48 49 49 49 49 49
26 27 27 26 26 25 24 24 24 23 23 23 24 25 27 28 29 31 32 34 35 36 37 38 39 40 40 41 42 43 44 46 46 47 48 49 49 50 50 50 51 51 51 51
25 26 26 27 27 27 27 26 26 25 24 25 26 27 29 30 31 32 34 35 36 37 38 39 40 41 43 43 45 45 46 47 48 49 50 51 51 52 53 53 52 51 51 50
25 26 26 26 26 27 27 27 27 26 27 28 29 30 31 32 33 34 35 37 38 39 40 41 42 43 45 45 46 47 48 50 51 52 52 53 53 54 54 54 53 52 51 49
25 25 25 25 25 26 27 28 29 29 29 30 31 32 33 34 35 36 37 38 39 40 41 42 44 45 46 47 48 49 50 52 52 53 54 54 55 55 55 54 54 52 51 48
25 25 25 25 25 27 28 29 30 31 32 33 34 34 35 36 37 38 39 40 41 42 43 44 46 47 48 49 50 51 52 53 54 54 55 55 56 55 55 54 53 51 48 46
25 25 25 26 27 28 29 30 31 33 34 35 36 37 38 38 39 40 41 42 44 45 46 47 48 49 51 51 52 53 53 54 55 56 56 56 56 55 54 53 50 48 45 43
25 25 25 26 28 29 30 32 34 35 36 37 38 39 40 41 42 43 44 45 46 47 48 49 50 51 52 53 53 54 55 56 56 57 56 56 55 53 52 49 47 44 41 39
27 28 28 28 30 32 33 35 36 38 39 40 41 42 43 44 45 46 47 48 49 50 51 51 52 53 53 54 54 55 56 56 56 55 54 53 51 49 47 44 42 40 37 35
30 30 31 32 33 35 36 38 39 40 42 43 44 45 46 47 48 49 49 50 50 51 52 52 53 53 54 54 54 55 55 54 53 52 50 48 46 43 41 39 37 35 32 30
33 35 36 37 38 39 40 42 43 44 45 46 46 47 48 49 50 50 51 51 51 51 52 52 52 52 52 52 52 51 51 50 49 47 45 42 39 37 34 32 30 29 27 25
38 39 40 41 42 43 44 45 45 46 47 48 49 49 49 50 50 51 50 50 50 50 50 50 50 49 49 48 48 47 46 45 44 41 39 36 34 31 29 28 26 24 22 21
42 43 43 44 45 46 46 47 47 47 48 48 48 48 49 49 49 48 48 48 48 47 47 46 46 46 45 45 44 43 42 41 39 37 35 32 30 27 25 23 21 20 19 18
43 44 45 45 46 46 47 47 47 47 46 46 46 46 46 46 46 45 45 44 44 43 43 43 43 42 42 41 41 40 38 37 35 33 31 27 25 23 21 19 18 16 15 14
44 45 45 46 46 46 46 45 45 44 44 43 43 43 42 42 41 41 41 41 40 40 40 40 39 39 38 38 37 35 34 32 30 27 24 21 20 18 16 15 14 13 12 11
44 45 45 44 44 44 43 43 42 42 42 41 40 40 40 39 38 38 38 38 38 36 36 35 35 35 34 34 32 30 28 26 23 21 19 17 15 14 13 12 11 10 9 8

GEFSNGP_500_meanwind_102.txt.gz
Wind_Speed
17 18 19 19 19 20 21 20 20 17 15 13 14 15 14 14 14 14 14 14 14 14 14 15 15 14 14 14 14 15 16 16 17 17 18 19 20 21 23 24 26 27 28 29
17 18 19 19 18 19 20 20 19 18 16 15 16 16 16 16 16 17 16 15 15 15 16 16 17 16 16 16 17 17 19 19 19 20 21 22 23 24 26 27 28 29 30 31
17 18 18 17 17 19 20 20 19 18 17 17 18 17 18 18 18 18 19 18 17 17 18 18 18 18 19 19 19 20 21 21 22 23 24 24 25 27 28 29 30 31 33 34
18 19 19 17 18 20 20 20 20 19 18 19 19 20 20 20 20 21 21 21 21 20 19 19 20 20 20 21 22 22 23 24 24 25 26 27 28 29 30 32 33 34 35 36
19 20 19 18 18 19 19 19 19 20 20 21 21 21 21 20 19 21 23 23 23 23 22 21 21 22 22 23 23 24 25 26 27 27 28 29 31 32 33 35 36 37 37 38
20 21 19 18 19 20 20 20 20 20 21 21 22 22 22 22 21 22 24 25 25 25 24 24 24 24 24 25 26 26 27 27 28 29 30 32 33 35 36 37 38 39 40 40
21 20 19 18 19 20 21 20 21 21 21 21 22 21 22 23 23 25 25 26 26 26 26 26 25 26 26 26 27 28 29 30 31 32 33 34 36 37 38 39 41 42 43 43
20 20 19 18 19 20 20 21 21 21 22 22 22 22 23 23 24 25 25 24 26 28 28 28 27 27 28 28 29 30 31 32 33 34 36 37 38 40 41 42 43 43 44 44
20 20 19 20 20 20 21 21 22 22 22 23 23 23 24 24 24 25 26 26 28 29 29 29 29 30 30 30 31 31 32 34 36 37 38 39 40 42 43 44 45 45 46 46
21 20 21 21 21 21 21 21 22 22 22 22 23 23 24 24 25 26 26 27 29 31 31 30 30 31 32 32 32 33 35 36 38 40 40 41 43 44 45 46 47 47 47 48
22 22 22 22 22 22 22 21 22 22 23 23 23 23 24 25 26 27 28 29 29 29 30 30 31 32 33 34 35 37 37 39 40 41 42 44 45 46 47 48 49 49 50 51
23 23 23 23 23 23 22 22 22 22 22 23 23 23 23 25 26 26 27 28 29 29 31 32 33 34 36 37 38 39 40 41 42 43 45 46 48 49 49 50 51 53 53 54
24 24 23 23 23 23 23 23 23 23 23 23 23 23 24 24 25 26 27 27 28 30 31 33 34 35 36 38 39 41 42 43 44 46 47 49 50 51 52 52 54 55 55 56
23 23 24 24 23 23 23 24 24 24 24 24 24 25 25 26 26 27 28 29 30 31 32 34 36 37 38 40 41 43 44 46 47 49 50 51 53 54 54 55 55 55 56 57
22 23 24 24 24 24 24 24 24 24 25 25 25 25 26 27 27 28 29 31 32 33 34 36 37 39 40 42 43 45 46 48 50 51 53 54 55 56 57 57 58 58 58 58
22 23 24 24 24 24 24 24 24 25 25 25 26 27 28 28 29 30 31 33 34 35 37 38 40 41 43 45 46 48 49 51 52 53 54 56 57 58 58 59 59 59 60 60
21 22 23 23 24 24 24 24 25 26 26 27 28 29 30 30 31 33 34 35 37 38 39 41 42 44 45 47 48 50 51 52 53 54 56 57 58 59 59 60 60 60 60 60
22 22 24 24 24 25 26 25 25 26 27 28 29 30 32 33 34 35 36 38 39 40 42 43 44 46 47 49 50 52 53 54 56 57 58 59 59 60 60 60 60 60 59 58
22 22 22 22 22 22 24 25 26 28 28 29 31 33 35 36 37 39 40 41 42 43 44 46 47 49 51 52 53 54 55 56 57 58 58 58 58 58 58 58 58 57 56 53
23 23 23 23 24 25 26 28 29 31 33 34 36 37 39 40 42 42 43 44 45 46 47 49 50 52 53 54 54 55 55 56 56 56 56 56 56 55 55 54 53 52 49 46
26 26 27 28 29 30 31 32 33 34 36 38 39 41 42 44 45 45 46 47 48 49 50 51 51 52 52 53 53 54 54 54 54 53 53 53 52 51 50 49 47 45 42 39
29 30 31 32 34 35 36 37 38 39 40 42 43 44 45 45 46 47 48 48 49 50 50 50 50 51 51 51 51 51 51 51 50 50 49 48 47 46 44 43 42 39 37 35
33 34 35 36 37 39 40 41 42 43 44 44 45 46 46 46 46 47 47 47 48 48 49 49 49 49 49 48 48 48 47 47 46 45 44 43 42 41 40 38 36 33 31 29
35 36 37 38 40 41 42 42 43 44 45 45 45 46 46 46 46 46 46 46 46 46 46 46 46 46 45 45 44 44 43 42 41 41 40 39 38 37 35 33 30 27 25 23
38 39 40 41 42 42 43 44 45 45 44 44 44 44 44 44 44 43 43 43 43 43 43 43 43 42 42 41 41 40 39 39 39 38 36 35 34 32 30 28 25 22 20 18
40 41 42 43 43 43 43 43 44 44 43 43 42 42 42 42 42 42 42 42 41 41 41 40 40 39 39 38 37 37 37 37 35 34 32 30 29 27 25 22 19 17 15 14
40 41 42 42 43 43 43 43 42 42 41 41 40 40 40 40 40 40 39 39 39 38 37 37 37 36 35 34 34 34 34 32 31 30 28 26 24 22 19 16 14 12 12 11

GEFSNGP_500_meanwind_108.txt.gz
Wind_Speed
22 22 22 20 18 17 17 17 17 16 16 18 18 17 15 15 14 14 14 14 15 14 15 15 15 16 17 18 19 19 20 21 22 22 23 23 24 24 25 26 26 27 27 27
21 21 21 20 18 18 18 17 17 17 17 19 19 18 17 16 16 16 16 17 17 18 18 18 18 19 20 20 21 22 23 23 24 25 26 26 26 27 28 28 28 29 29 29
19 18 19 19 17 17 17 17 17 17 17 19 19 19 20 20 19 19 19 20 20 21 21 21 21 21 22 23 24 25 26 26 27 28 28 28 29 30 30 31 31 30 31 31
19 19 18 17 16 16 17 17 17 18 18 19 19 19 21 21 22 21 21 22 23 24 25 25 25 25 25 25 26 27 28 28 29 30 31 31 31 32 32 33 33 33 34 34
20 19 19 20 18 18 19 19 18 18 19 19 19 20 21 22 23 23 23 24 24 25 26 27 28 28 28 28 29 29 30 31 31 32 33 34 33 33 34 34 34 35 35 34
21 21 20 21 20 20 20 21 20 20 20 20 20 21 22 22 23 24 25 26 27 28 28 29 30 31 31 31 32 32 32 33 34 35 35 36 36 36 35 35 35 35 36 36
22 22 21 21 20 19 20 20 20 20 21 21 22 23 23 24 25 25 27 28 30 31 31 31 32 33 33 34 34 34 35 35 36 37 37 38 38 38 37 38 38 37 38 38
21 20 21 21 19 20 21 21 21 21 22 22 22 23 24 24 25 27 28 29 30 31 32 33 34 35 35 36 37 37 37 38 38 39 39 39 39 39 40 40 40 40 41 40
19 20 20 20 20 21 21 22 22 22 22 23 23 24 24 25 26 26 29 30 31 33 33 34 36 37 37 37 37 37 38 38 39 40 41 42 41 41 41 42 42 43 44 44
19 20 20 21 22 22 22 22 23 23 24 24 24 25 25 26 26 27 28 30 31 32 33 34 35 36 36 36 37 38 39 40 41 42 42 42 42 43 43 43 44 44 45 46
21 21 21 22 23 24 24 24 25 25 24 24 25 25 26 26 27 28 29 30 30 32 34 34 35 36 37 38 38 39 40 42 43 43 42 42 42 43 44 45 46 47 48 49
22 22 23 23 24 24 25 25 26 26 26 26 26 27 27 28 28 29 29 30 30 31 32 32 33 34 36 37 38 39 41 43 43 43 43 44 44 46 46 47 48 50 51 52
21 22 23 23 24 24 25 26 27 27 27 26 27 27 28 28 28 29 29 29 30 31 31 32 34 35 37 38 39 40 41 43 44 44 45 46 47 48 49 50 50 52 53 54
20 20 21 22 23 24 25 26 26 27 27 27 27 28 28 29 29 29 29 29 30 31 32 32 34 35 36 38 39 41 42 42 44 45 47 48 49 50 51 52 53 54 56 57
19 19 20 21 22 23 24 25 26 26 26 26 27 28 29 29 30 30 30 31 31 32 33 34 36 36 37 38 40 41 42 43 44 45 47 49 50 52 53 54 55 57 58 59
18 18 18 19 20 21 22 23 24 25 26 26 27 28 29 31 31 30 31 31 32 34 35 36 37 38 38 40 41 42 43 44 45 47 48 50 52 53 55 56 57 58 58 59
18 19 19 20 20 21 22 23 25 27 27 27 28 30 30 31 31 31 32 33 34 36 37 38 39 40 41 42 43 44 46 47 48 50 51 53 54 55 56 57 57 58 58 58
20 20 21 21 23 24 24 26 27 28 28 29 31 31 32 32 33 34 35 36 37 38 39 40 41 42 44 45 46 47 49 50 52 53 54 55 55 56 56 57 57 57 56 56
21 22 23 23 24 25 26 27 28 29 30 32 32 33 34 35 36 37 38 39 40 41 41 43 44 45 46 47 49 50 51 52 53 54 54 54 55 55 55 54 54 54 53 52
23 24 25 26 26 27 28 29 30 31 33 34 34 35 36 38 39 40 41 42 43 43 45 46 47 48 48 49 50 51 52 53 53 53 53 53 52 52 52 51 50 49 48 47
25 26 26 27 29 30 31 31 32 33 35 36 37 38 39 40 40 41 43 44 44 45 46 47 48 48 48 49 49 50 51 51 50 50 50 50 50 49 48 48 47 45 45 44
27 28 29 30 31 32 33 34 35 37 38 39 40 40 40 41 42 43 44 45 45 46 46 47 47 47 47 48 49 49 48 48 48 47 47 46 46 45 44 43 42 42 41 39
29 30 32 32 34 35 36 37 38 39 40 41 41 42 42 43 44 45 45 45 46 46 45 46 46 46 46 46 46 45 45 44 44 44 43 43 42 41 40 39 38 37 36 35
31 32 34 35 36 37 38 39 40 40 41 42 43 43 43 44 44 45 45 45 44 44 44 43 43 44 44 43 42 41 41 41 41 40 39 38 38 37 36 35 33 33 31 30
32 33 35 36 37 38 38 39 40 41 41 42 42 43 43 43 44 43 43 42 42 41 41 41 41 40 40 39 39 38 38 38 37 36 35 35 34 33 32 30 29 28 26 24
33 34 35 36 37 38 39 39 40 41 41 41 41 41 41 40 40 40 40 39 39 39 39 38 38 37 36 35 35 35 34 34 33 32 31 30 29 28 26 25 24 22 20 18
34 34 35 36 37 38 38 38 38 38 38 38 37 37 37 36 36 36 37 37 36 36 35 35 34 33 32 31 31 30 30 29 28 27 26 25 23 22 20 19 17 17 16 14

GEFSNGP_500_meanwind_114.txt.gz
Wind_Speed
30 27 26 26 21 20 20 20 21 20 22 23 20 17 16 16 17 17 16 14 14 14 14 14 14 13 14 14 14 15 16 16 17 18 19 20 21 22 23 23 24 25 26 26
31 27 25 25 20 20 20 20 21 21 24 25 23 19 19 19 18 18 17 16 16 16 16 16 16 16 17 17 17 18 18 18 20 21 22 23 24 25 25 26 26 27 27 28
30 27 27 25 22 20 21 21 22 23 24 25 24 24 21 19 19 19 18 18 18 17 17 17 18 19 20 20 20 20 20 21 22 23 25 26 27 28 28 29 29 29 30 31
31 30 30 24 23 22 22 22 25 26 25 25 24 22 22 22 21 20 20 20 20 21 21 20 21 21 23 22 23 23 23 24 25 26 28 29 30 30 30 30 30 31 32 33
29 29 29 26 24 24 24 24 26 26 26 25 23 24 24 22 22 21 21 21 22 22 23 23 23 23 24 24 25 26 26 27 27 29 29 30 31 31 32 32 33 33 34 35
26 25 26 24 24 24 25 24 25 26 25 25 24 25 23 21 22 22 23 22 23 25 25 26 26 26 26 27 28 28 28 30 31 31 31 32 33 34 35 36 37 38 38 39
24 25 24 24 22 22 25 24 23 23 25 25 24 25 24 24 24 24 23 24 24 25 26 27 28 29 29 29 30 31 32 33 34 34 34 35 36 37 37 38 40 41 41 41
23 24 26 26 23 23 23 21 22 24 26 25 24 25 25 25 25 25 25 25 26 26 27 28 29 30 32 32 32 34 35 35 36 37 38 39 40 40 40 42 43 42 41 40
24 25 26 24 24 22 21 20 21 22 24 24 24 25 25 25 26 26 26 26 26 27 28 29 29 31 32 33 34 35 37 37 37 38 38 39 41 41 40 41 41 41 42 42
20 22 23 23 23 21 21 21 20 21 23 24 24 24 25 26 26 26 26 26 27 28 28 29 31 32 33 34 35 35 36 37 37 37 38 40 40 40 40 42 42 42 41 43
21 22 22 22 23 23 23 22 21 22 23 24 25 25 25 26 27 28 27 28 28 28 29 30 31 32 34 35 35 36 36 37 37 37 38 39 39 40 40 40 41 42 42 44
19 20 21 21 22 21 21 20 20 22 23 25 26 26 26 27 28 28 28 28 29 29 30 31 31 32 33 34 34 35 36 37 37 38 38 38 39 40 41 42 42 43 45 46
19 19 20 20 21 21 22 22 22 23 24 24 25 26 26 26 27 28 28 29 30 31 32 32 32 32 33 34 35 35 35 35 36 37 38 39 40 41 42 43 44 46 47 48
19 19 20 21 21 22 22 22 22 23 24 25 25 26 27 27 27 28 28 29 30 30 31 31 32 32 33 33 34 35 36 36 37 38 39 40 41 42 44 45 47 48 49 50
18 19 19 19 19 20 20 21 22 23 24 24 25 25 26 27 27 28 28 28 29 30 30 31 32 33 33 33 35 37 38 39 40 41 42 43 44 46 47 48 49 50 51 51
17 17 18 19 19 20 21 22 22 23 23 24 25 25 26 28 29 29 29 29 30 31 31 32 33 34 35 36 36 38 40 41 42 43 45 45 46 47 48 49 50 50 51 51
17 17 18 19 19 19 20 22 22 23 24 24 25 26 27 28 29 29 30 31 32 33 34 34 34 35 36 36 38 39 41 42 44 45 46 47 48 49 49 50 50 50 51 52
18 18 18 19 19 20 21 22 23 24 25 26 26 27 27 29 31 32 32 33 34 35 37 37 38 39 40 40 41 42 43 44 45 46 47 48 49 49 49 50 50 51 52 52
19 19 20 20 21 22 23 23 24 26 27 28 29 30 31 32 33 34 35 36 37 38 38 39 39 40 42 43 44 44 45 45 46 47 47 48 49 50 50 50 51 51 51 51
21 21 22 22 23 24 24 25 26 27 29 30 31 33 34 35 36 37 38 38 38 38 39 40 41 42 43 43 44 45 45 46 47 47 48 48 48 49 49 49 49 48 47 47
22 23 24 24 25 26 26 27 28 30 32 33 34 35 36 37 37 38 38 38 39 40 41 41 42 43 43 44 44 45 45 46 46 46 46 46 46 46 46 46 45 44 43 43
23 24 26 27 27 28 28 29 31 33 34 35 36 37 38 38 39 39 39 40 41 41 42 43 43 43 43 43 43 43 43 44 44 43 43 43 43 43 42 41 41 40 39 39
26 27 28 29 30 30 31 32 33 34 35 36 37 37 38 38 39 39 40 41 42 42 42 42 42 42 42 42 42 42 42 41 41 41 41 41 41 40 39 38 37 37 37 36
27 28 30 30 31 32 33 35 35 36 37 38 38 39 39 39 40 40 41 41 41 40 40 40 40 40 40 40 40 40 40 39 38 38 38 37 37 36 36 35 34 33 31 30
28 29 30 32 33 34 36 37 37 38 38 39 39 39 39 39 39 39 39 39 39 39 39 39 38 38 38 38 38 37 36 36 35 34 33 33 33 32 32 31 29 28 27 26
29 31 32 34 34 35 36 37 37 38 38 38 38 39 38 38 38 38 37 37 37 37 37 37 37 37 36 35 35 33 32 32 32 31 30 29 28 28 27 26 24 24 23 22
31 32 33 34 35 36 36 36 37 37 37 36 36 36 36 36 36 36 35 35 35 35 35 34 34 34 33 32 31 31 30 29 28 27 26 25 24 23 23 22 21 20 19 18